カタログに戻る

STARLINK-30350

運用中通信VLEO
NORAD 57746·PAYLOAD·🇺🇸 United States

打ち上げ Sep 1, 2023 から Cape Canaveral Space Force Station

Loading…

次のパス (今後24時間)

TLE

最新Source: CelesTrak SupGP

元期: Sep 15, 2026, 02:36 UTC

1 57746C 23131Q   26258.10881944 -.00020550  00000+0 -74439-3 0  2588
2 57746  43.0020 179.3275 0001309 269.0964 152.1633 15.27585657    16

AllMySatでSTARLINK-30350をリアルタイム追跡

Download on the App Store